450 Class

Consolation Race Results

RiderTimeIntervalBest LapHometownMachine
1 Scott Meshey9:39.8114 Laps2:25.242Zephyrhills, FLHusqvarna FC 450
2 9:59.070+19.2592:29.528Rochester, NYKTM 450 SX-F
3 9:59.929+20.1182:29.084Fayetteville, NCKTM 450 SX-F
4 Rody Schroyer10:02.194+22.3832:28.760Ottawa Lake, MIHonda CRF450R
5 Benjamin Brouillard10:03.317+23.5062:31.975Brooklyn, CTKawasaki KX450
6 10:08.666+28.8552:31.856Middletown, NYHusqvarna TC250
7 Richard Tolman-Moschetti10:11.056+31.2452:30.988Templeton, MAHusqvarna FC 450
8 Jack Zarse10:15.583+35.7722:34.077Wolfeboro, NHKTM 450 SX-F
9 10:18.050+38.2392:33.165Foxborough, MAHonda CRF450R
10 Matthew Fisk10:24.806+44.9952:36.216Seekonk, MAHusqvarna FC350
11 10:29.459+49.6482:32.606East Lyme, CTYamaha YZ450F
12 10:34.154+54.3432:36.627Kawasaki KX450
13 Brett Boski10:36.213+56.4022:38.010New Milford, CTYamaha YZ450F
14 James Henshaw10:36.716+56.9052:38.264Manahawkin, NJYamaha YZ450F
15 10:40.516+1:00.7052:36.704Abington, MAKawasaki KX450
16 10:47.194+1:07.3832:37.263Salinas, CAYamaha YZ450F
17 Thomas Lanphear10:50.652+1:10.8412:37.250Westerly, RIHusqvarna FC 450
18 Matthew Silva10:51.726+1:11.9152:39.602Shirley, MAHusqvarna FC 450
19 Edward Morris10:52.160+1:12.3492:39.945Lansing, MIKawasaki KX450
20Cole Shondeck 10:58.909+1:19.0982:39.470Colorado Springs, COHonda CRF450R
21 11:02.889+1:23.0782:42.112Honda CRF450R
22 Jacob Pogodzienski11:03.752+1:23.9412:43.991Watertown, CTYamaha YZ450F
23 Jack Pagano11:05.033+1:25.2212:39.947Wilbraham, MAKTM 350 SX-F
24 Brandon Gregoire11:06.107+1:26.2962:34.792Monson, MAYamaha YZ450F
25 Travis Thompson11:10.284+1:30.4732:40.409Howell, MIYamaha YZ450F
26 Michael Ashe11:15.629+1:35.8182:36.550Navarre, FLSuzuki RM-Z450
27 11:21.558+1:41.7472:49.094New Hampton, NYKTM 450 SX-F
28 11:25.503+1:45.6922:48.425Columbia, CTHonda CRF450R
29 Clayton Tucker11:27.466+1:47.6552:30.971El Dorado Hills, CAYamaha YZ450F
30 Tyler Loud11:29.234+1:49.4232:43.727Catskill, NYGasGas MC 450F
31 11:31.007+1:51.1962:33.292El Paso, TXYamaha YZ450F
32 William Clark11:36.400+1:56.5892:53.589Buckfield, MEGasGas MC 450F
33 11:51.640+2:11.8292:41.632Hooksett, NHSuzuki RM-Z450
34 12:02.454+2:22.6432:45.029Laotto, INYamaha YZ450F
35 marshall Macintyre12:23.452+2:43.6412:35.038Southwick, MAKawasaki KX450
36 Jonah Geistler12:28.875+2:49.0642:50.702KTM 450 SX-F
37 5:18.8462 Laps2:42.268North Franklin, CTYamaha YZ450F
DNF Rashidi Kerrison1 LapManhattan, NYHonda CRF450R
DNF +.000West Greenwich, RIYamaha YZ450F
DNS James HebertCoventry, CTHusqvarna FC 450